Date,TemperatureHighF,TemperatureAvgF,TemperatureLowF,DewpointHighF,DewpointAvgF,DewpointLowF,HumidityHigh,HumidityAvg,HumidityLow,PressureMaxIn,PressureMinIn,WindSpeedMaxMPH,WindSpeedAvgMPH,GustSpeedMaxMPH,PrecipitationSumIn
2013-2-1,44,40,37,39,37,-40,100,88,73,29.75,29.19,17,8,30,0.00
2013-2-2,40,36,29,39,34,22,100,90,74,29.66,29.11,20,7,29,0.05
2013-2-3,36,32,26,32,26,22,100,79,64,29.85,29.67,21,6,30,0.00
2013-2-4,40,36,32,40,35,31,100,98,92,29.72,29.60,21,10,34,0.02
2013-2-5,47,39,34,40,36,31,100,88,64,29.71,29.39,21,6,27,0.00
2013-2-6,45,35,28,31,26,22,92,72,45,29.51,29.40,11,3,19,0.00
2013-2-7,39,31,28,33,28,24,100,88,69,29.72,29.51,10,3,13,0.00
2013-2-8,50,30,24,34,26,24,100,86,49,29.83,29.70,10,2,14,0.00
2013-2-9,35,28,26,30,25,22,100,88,68,29.94,29.83,8,2,11,0.00
2013-2-10,41,30,24,29,24,18,100,80,49,29.94,29.80,10,2,14,0.00
2013-2-11,29,26,21,26,22,18,100,84,69,29.80,29.66,13,5,25,0.00
2013-2-12,32,28,27,32,27,23,100,94,85,29.83,29.64,11,5,19,0.00
2013-2-13,32,28,26,29,26,26,99,95,87,30.20,29.83,10,4,14,0.00
2013-2-14,35,29,26,32,28,26,100,96,83,30.20,29.99,9,2,12,0.00
2013-2-15,38,32,29,36,32,28,100,97,83,30.06,29.93,5,1,8,0.06
2013-2-16,37,31,29,35,31,28,100,98,88,30.13,30.06,3,0,5,0.01
2013-2-17,41,34,31,38,33,31,99,96,85,30.15,30.11,3,1,4,0.04
2013-2-18,40,33,30,39,31,29,100,94,70,30.11,29.99,4,1,5,0.00
2013-2-19,32,31,28,32,29,27,99,96,81,29.98,29.72,11,7,17,0.00
2013-2-20,32,27,24,28,26,23,100,94,74,30.02,29.85,14,7,18,0.00
2013-2-21,32,24,21,25,22,20,99,93,76,30.03,29.96,6,3,9,0.01
2013-2-22,28,23,20,24,21,17,100,92,74,29.96,29.76,10,5,13,0.00
2013-2-23,31,27,22,31,26,22,99,99,99,29.76,29.63,8,2,11,0.00
2013-2-24,41,32,26,37,31,26,100,96,76,29.86,29.66,8,2,11,0.34
2013-2-25,44,38,34,44,38,34,99,99,99,30.16,29.84,9,2,15,0.20
2013-2-26,43,36,32,41,36,32,100,98,87,30.27,30.15,11,4,16,0.01
2013-2-27,36,33,31,36,33,31,100,99,97,30.32,30.26,10,4,15,0.00
2013-2-28,46,36,32,45,34,31,100,94,72,30.30,30.10,6,1,9,0.00